VPCOH EDDL-EKAH

Flight info

Callsign VPCOH
Flight time N/A
Altitude 35000
Route MEVEL1Z MEVEL Y850 BASUM/N0432F280 Y850 PIXUR/N0425F270 Y850 MUBZI/N0449F350 M105 AMRAK P999 ALS M852 ADSEN
Aircraft B738/M-SDE2E3FGHIRWXY/LB1

Departure

Time N/A
Airport Düsseldorf Airport (EDDL)

Arrival

Time 2026-05-08 19:55
Airport Aarhus Airport (EKAH)
Time Latitude Longitude Altitude Speed Heading
2026-05-08 19:27 54.57128 9.68098 35215 ft 450 kts
2026-05-08 19:28 54.60212 9.69067 35218 ft 450 kts
2026-05-08 19:28 54.66378 9.71000 35224 ft 450 kts
2026-05-08 19:29 54.72572 9.72553 35242 ft 449 kts
2026-05-08 19:29 54.78724 9.74212 35229 ft 451 kts 13°
2026-05-08 19:29 54.81592 9.76452 35247 ft 457 kts 31°
2026-05-08 19:30 54.84036 9.80031 35236 ft 462 kts 47°
2026-05-08 19:30 54.85841 9.84670 35283 ft 465 kts 58°
2026-05-08 19:30 54.87403 9.89587 35268 ft 466 kts 59°
2026-05-08 19:31 54.91236 9.98519 35268 ft 459 kts 38°
2026-05-08 19:31 54.93803 10.01656 35272 ft 455 kts 26°
2026-05-08 19:31 54.96679 10.03903 35278 ft 452 kts 19°
2026-05-08 19:32 55.02560 10.07875 35262 ft 452 kts 18°
2026-05-08 19:32 55.05435 10.09823 35243 ft 435 kts 19°
2026-05-08 19:32 55.08209 10.11728 35244 ft 419 kts 19°
2026-05-08 19:32 55.10875 10.13579 35223 ft 405 kts 19°
2026-05-08 19:33 55.13480 10.15390 34517 ft 410 kts 17°
2026-05-08 19:33 55.16258 10.16676 33356 ft 419 kts
2026-05-08 19:33 55.19201 10.17078 32162 ft 428 kts 359°
2026-05-08 19:33 55.22218 10.17230 31061 ft 436 kts 359°
2026-05-08 19:34 55.25272 10.17353 29951 ft 442 kts 359°
2026-05-08 19:34 55.28327 10.17484 29502 ft 431 kts 359°
2026-05-08 19:34 55.31334 10.17627 29363 ft 437 kts 359°
2026-05-08 19:34 55.34413 10.17784 29303 ft 448 kts 360°
2026-05-08 19:35 55.37488 10.17953 29275 ft 439 kts 360°
2026-05-08 19:35 55.40473 10.18129 29206 ft 419 kts 360°
2026-05-08 19:35 55.43353 10.18303 28617 ft 412 kts
2026-05-08 19:35 55.46240 10.18473 27364 ft 421 kts
2026-05-08 19:36 55.49207 10.18644 26080 ft 431 kts
2026-05-08 19:36 55.52230 10.18820 24985 ft 436 kts
2026-05-08 19:36 55.55229 10.18997 23954 ft 437 kts
2026-05-08 19:36 55.58320 10.19179 22632 ft 441 kts
2026-05-08 19:37 55.61357 10.19359 21473 ft 441 kts
2026-05-08 19:37 55.64421 10.19541 20426 ft 439 kts
2026-05-08 19:37 55.67450 10.19722 19523 ft 433 kts
2026-05-08 19:37 55.70452 10.19902 18670 ft 427 kts
2026-05-08 19:38 55.73419 10.20079 17702 ft 422 kts
2026-05-08 19:38 55.76314 10.20253 16769 ft 418 kts
2026-05-08 19:38 55.79201 10.20626 15830 ft 414 kts
2026-05-08 19:38 55.81920 10.22220 14921 ft 412 kts 28°
2026-05-08 19:39 55.84188 10.25250 14122 ft 407 kts 47°
2026-05-08 19:39 55.85748 10.29368 13437 ft 396 kts 68°
2026-05-08 19:39 55.86364 10.33967 13320 ft 372 kts 88°
2026-05-08 19:39 55.86062 10.38381 13190 ft 351 kts 109°
2026-05-08 19:40 55.84936 10.42071 13060 ft 333 kts 131°
2026-05-08 19:40 55.83204 10.44548 12954 ft 317 kts 154°
2026-05-08 19:40 55.81133 10.45527 12856 ft 303 kts 178°
2026-05-08 19:40 55.79118 10.44882 12761 ft 291 kts 203°
2026-05-08 19:41 55.77520 10.42810 12621 ft 284 kts 229°
2026-05-08 19:41 55.76607 10.39739 12325 ft 282 kts 253°
2026-05-08 19:41 55.76198 10.36360 11825 ft 280 kts 259°
2026-05-08 19:41 55.76266 10.32905 11194 ft 285 kts 285°
2026-05-08 19:42 55.77117 10.29729 10669 ft 284 kts 303°
2026-05-08 19:42 55.78504 10.27378 10574 ft 269 kts 326°
2026-05-08 19:42 55.80088 10.25769 10446 ft 263 kts 340°
2026-05-08 19:42 55.81871 10.25339 10406 ft 259 kts 359°
2026-05-08 19:43 55.83744 10.25274 10258 ft 281 kts
2026-05-08 19:43 55.85748 10.25224 9909 ft 291 kts
2026-05-08 19:43 55.87770 10.25164 9549 ft 289 kts
2026-05-08 19:43 55.89782 10.25091 9202 ft 288 kts 360°
2026-05-08 19:44 55.91775 10.25009 8866 ft 286 kts 360°
2026-05-08 19:44 55.93757 10.24920 8534 ft 284 kts 360°
2026-05-08 19:44 55.95725 10.24828 8222 ft 282 kts 360°
2026-05-08 19:44 55.97634 10.24735 7902 ft 281 kts
2026-05-08 19:45 55.99583 10.24638 7576 ft 279 kts 360°
2026-05-08 19:45 56.01521 10.24541 7256 ft 278 kts
2026-05-08 19:45 56.03287 10.24452 6962 ft 277 kts
2026-05-08 19:45 56.05210 10.24354 6640 ft 276 kts
2026-05-08 19:46 56.07134 10.24255 6295 ft 275 kts
2026-05-08 19:46 56.09052 10.24157 5959 ft 274 kts
2026-05-08 19:46 56.12856 10.23961 5323 ft 272 kts
2026-05-08 19:47 56.14738 10.23864 5028 ft 269 kts
2026-05-08 19:47 56.16577 10.23770 4759 ft 266 kts
2026-05-08 19:47 56.18416 10.23676 4476 ft 264 kts
2026-05-08 19:47 56.20231 10.23582 4336 ft 256 kts
2026-05-08 19:48 56.21986 10.23490 4219 ft 248 kts
2026-05-08 19:48 56.23684 10.23401 4116 ft 240 kts
2026-05-08 19:48 56.25322 10.23317 4036 ft 227 kts
2026-05-08 19:48 56.26787 10.23891 3904 ft 208 kts 31°
2026-05-08 19:49 56.28023 10.25156 3606 ft 206 kts 33°
2026-05-08 19:49 56.29241 10.26419 3433 ft 199 kts 33°
2026-05-08 19:49 56.30429 10.27653 3228 ft 194 kts 33°
2026-05-08 19:49 56.31577 10.28845 3077 ft 186 kts 33°
2026-05-08 19:50 56.32642 10.30029 2992 ft 172 kts 45°
2026-05-08 19:50 56.33166 10.31803 3011 ft 161 kts 85°
2026-05-08 19:50 56.33108 10.33808 2796 ft 161 kts 100°
2026-05-08 19:50 56.32970 10.35768 2575 ft 153 kts 101°
2026-05-08 19:51 56.32801 10.37614 2387 ft 144 kts 103°
2026-05-08 19:51 56.32631 10.39327 2227 ft 134 kts 104°
2026-05-08 19:51 56.32467 10.40936 2066 ft 124 kts 103°
2026-05-08 19:51 56.32315 10.42422 1910 ft 123 kts 104°
2026-05-08 19:52 56.32156 10.43963 1752 ft 126 kts 104°
2026-05-08 19:52 56.31996 10.45517 1587 ft 126 kts 104°
2026-05-08 19:52 56.31837 10.47072 1426 ft 125 kts 104°
2026-05-08 19:52 56.31682 10.48598 1260 ft 123 kts 104°
2026-05-08 19:53 56.31529 10.50099 1122 ft 124 kts 104°
2026-05-08 19:53 56.31370 10.51651 955 ft 126 kts 103°
2026-05-08 19:53 56.31213 10.53201 776 ft 125 kts 102°
2026-05-08 19:53 56.31057 10.54742 630 ft 125 kts 102°
2026-05-08 19:54 56.30900 10.56289 470 ft 124 kts 101°
2026-05-08 19:54 56.30747 10.57800 319 ft 124 kts 101°
2026-05-08 19:54 56.30594 10.59336 150 ft 125 kts 101°
2026-05-08 19:54 56.30437 10.60836 89 ft 108 kts 100°
2026-05-08 19:55 56.30335 10.61908 88 ft 65 kts 100°
2026-05-08 19:55 56.30278 10.62469 89 ft 34 kts 101°
2026-05-08 19:55 56.30243 10.62818 88 ft 18 kts 95°
2026-05-08 19:55 56.30330 10.62929 88 ft 13 kts 11°
2026-05-08 19:56 56.30357 10.62938 89 ft 0 kts 10°
2026-05-08 19:56 56.30362 10.62940 88 ft 1 kts 10°
2026-05-08 19:56 56.30365 10.62941 88 ft 1 kts 10°
2026-05-08 19:56 56.30370 10.62943 88 ft 0 kts 11°
2026-05-08 19:57 56.30371 10.62943 88 ft 1 kts 11°
2026-05-08 19:57 56.30429 10.62962 88 ft 12 kts 10°
2026-05-08 19:57 56.30512 10.62989 88 ft 12 kts 10°
2026-05-08 19:58 56.30580 10.63010 89 ft 9 kts
2026-05-08 19:58 56.30631 10.62892 91 ft 8 kts 281°
2026-05-08 19:58 56.30640 10.62808 88 ft 7 kts 281°
2026-05-08 19:58 56.30641 10.62800 88 ft 1 kts 281°
2026-05-08 19:59 56.30642 10.62794 88 ft 1 kts 281°
2026-05-08 19:59 56.30649 10.62788 91 ft 3 kts 342°
2026-05-08 19:59 56.30681 10.62791 88 ft 3 kts
2026-05-08 19:59 56.30696 10.62796 88 ft 1 kts
2026-05-08 20:00 56.30702 10.62798 88 ft 0 kts 10°